Find Telstar 12 Vantage

NORAD ID: 41036 Int'l Des: 2015-068 Owner: TSKY Country: CA operational
HEOCIRCULARGSOGEO

リアルタイム位置

3D地球を読み込み中...

Telstar 12 Vantageについて

説明を読み込み中...

次回通過

Passes for default location (London). Set your location on the main map for personalized predictions.

高度履歴

Loading altitude history...

軌道要素

1 41036U 15068A 26106.93662777 -.00000112 00000-0 00000-0 0 9991
2 41036 0.0128 256.7506 0002247 130.9419 139.5806 1.00271889 38010
Epoch: Apr 16, 2026 • Age: 13 hours

現在のステータス

高度 35777.1 km
速度 3.08 km/s
衛星直下点 0.03°N, 15.01°W
打ち上げ日 Nov 24, 2015
運用期間 10.3 years
タイプ other

技術仕様

分類 Payload
質量 4900.00 kg
乾燥質量 2170.00 kg
総質量 4900.00 kg
長さ 6.00 m
直径 2.70 m
スパン 39.00 m
形状 Box +2 pan
製造者 ADST
バスタイプ Eurostar 3000
フェーズステータス In Orbit
所有者/国 TSKY/CA

Most Searched